[[{"header":{"parameterUnit":"m.s-1","parameterCategory":1,"la1":30.2991,"la2":30.254,"lo1":-89.0895,"lo2":-89.0444,"dy":0.0017,"dx":0.0017,"nx":28,"ny":28,"refTime":"2024-05-28T03:00:00:Z","depth":0,"parameterNumber":2,"parameterNumberName":"U-component_of_WINDS"},"data":[0,0,0,0,0,0,0,0,0,0,0,0,0,0,0,0,0,0,0,0,0,0,0,0,0,0,0,0,0,0,0,0,0,0,0,0,0,0,0,0,0,0,0,0,0,0,0,0,0,0,0,0,0,0,0,0,0,0,-1.8657,-1.8657,0,-1.8676,-1.8677,-1.8677,-1.8734,-1.8735,-1.8737,-1.8738,-1.8756,-1.8755,-1.8754,0,0,0,0,0,0,0,0,0,0,0,0,0,-1.8667,-1.8666,-1.8657,-1.8657,-1.8657,-1.8676,-1.8677,-1.8677,-1.8734,-1.8735,-1.8737,-1.8738,-1.8756,-1.8755,-1.8754,0,0,0,0,0,0,0,0,0,0,0,0,0,-1.8672,-1.8666,-1.8656,-1.8688,-1.8691,-1.8676,-1.8677,-1.8677,-1.8734,-1.8735,-1.8737,-1.8739,-1.8756,-1.8755,-1.8754,-1.871,0,0,-1.8751,-1.8751,0,0,0,0,0,0,0,0,-1.8672,-1.8672,-1.8683,-1.8686,-1.8689,-1.8705,-1.8687,-1.8688,-1.8733,-1.8717,-1.8738,-1.874,-1.8737,-1.8738,-1.8737,-1.8711,-1.8712,-1.8751,-1.875,-1.875,-1.875,0,0,0,0,0,0,0,-1.8671,-1.8671,-1.8664,-1.8683,-1.8687,-1.8701,-1.8703,-1.8687,-1.8716,-1.8719,-1.8723,-1.8725,-1.8739,-1.8738,-1.8738,-1.8712,-1.8751,-1.875,-1.875,-1.8749,-1.8653,-1.8651,0,0,0,0,0,0,-1.8667,-1.867,-1.8664,-1.8665,-1.8685,-1.8699,-1.8702,-1.8698,-1.8717,-1.8721,-1.8723,-1.8727,-1.8739,-1.8739,-1.8739,-1.869,-1.875,-1.8749,-1.8748,-1.8655,-1.8653,-1.865,0,0,0,0,0,0,-1.8667,-1.8665,-1.8663,-1.8669,-1.867,-1.8697,-1.8691,-1.8697,-1.8696,-1.872,-1.8725,-1.8717,-1.8741,-1.874,-1.8718,-1.8691,-1.8749,-1.8748,-1.8657,-1.8654,-1.8651,-1.8591,0,0,0,0,0,0,-1.8667,-1.8665,-1.8649,-1.8668,-1.8669,-1.8641,-1.869,-1.8696,-1.8695,-1.87,-1.8716,-1.872,-1.8742,-1.8719,-1.8717,-1.8691,-1.8747,-1.866,-1.8656,-1.8652,-1.8595,-1.8586,-1.8579,0,0,0,0,0,-1.8667,-1.863,-1.8648,-1.8646,-1.8649,-1.864,-1.864,-1.8667,-1.8692,-1.8676,-1.8692,-1.8719,-1.8695,-1.8716,-1.8714,-1.8688,-1.8661,-1.8657,-1.8653,-1.8599,-1.8588,-1.8579,0,0,0,0,0,0,-1.8605,-1.8633,-1.8653,-1.8621,-1.8628,-1.8649,-1.863,-1.8654,-1.8653,-1.8658,-1.8691,-1.8694,-1.8667,-1.8675,-1.8698,-1.8647,-1.8683,-1.8678,-1.8643,-1.8632,-1.8624,-1.8623,-1.8746,0,0,0,0,0,-1.8589,-1.8579,-1.8603,-1.8573,-1.8575,-1.8602,-1.8598,-1.8619,-1.8627,-1.8629,-1.8643,-1.8649,-1.8643,-1.8638,-1.8634,-1.8597,-1.8602,-1.8578,-1.857,-1.8563,-1.8558,-1.8541,-1.8531,-1.8636,-1.8636,-1.8636,0,0,-1.8553,-1.8567,-1.8558,-1.8561,-1.8569,-1.8558,-1.8604,-1.859,-1.8582,-1.8627,-1.8607,-1.8617,-1.8626,-1.8597,-1.8584,-1.8603,-1.853,-1.8557,-1.8551,-1.855,-1.8535,-1.8525,-1.8516,-1.8633,-1.8634,-1.8634,0,0,-1.8483,-1.8492,-1.8469,-1.8476,-1.8487,-1.8505,-1.8499,-1.8518,-1.8527,-1.8507,-1.8541,-1.8532,-1.8521,-1.8526,-1.8527,-1.8461,-1.8487,-1.8459,-1.8415,-1.8398,-1.8389,-1.8382,-1.8359,-1.8351,-1.8454,-1.8454,-1.8454,0,-1.8437,-1.8422,-1.8453,-1.8438,-1.8438,-1.848,-1.8457,-1.8462,-1.847,-1.847,-1.8491,-1.8478,-1.8487,-1.846,-1.8444,-1.8443,-1.8439,-1.8457,-1.8388,-1.8381,-1.8375,-1.8354,-1.8345,-1.845,-1.8451,-1.8451,-1.8452,0,-1.8366,-1.8356,-1.8335,-1.8344,-1.8343,-1.8323,-1.8351,-1.8345,-1.8366,-1.8382,-1.8363,-1.8375,-1.8374,-1.837,-1.8389,-1.8346,-1.8357,-1.8382,-1.8419,-1.8361,-1.8342,-1.8334,-1.8446,-1.8447,-1.8448,-1.8449,0,0,-1.8257,-1.8285,-1.8277,-1.8282,-1.8298,-1.8291,-1.8273,-1.8274,-1.8269,-1.8274,-1.8261,-1.8251,-1.8275,-1.8277,-1.8297,-1.8282,-1.8231,-1.831,-1.8311,-1.8295,-1.8185,-1.8166,-1.8156,-1.8248,-1.8247,-1.8245,-1.8185,0,-1.8191,-1.8164,-1.8192,-1.816,-1.8151,-1.8191,-1.8176,-1.8185,-1.8199,-1.8194,-1.821,-1.8203,-1.8235,-1.8237,-1.8223,-1.824,-1.8209,-1.8244,-1.8236,-1.8236,-1.8233,-1.8146,-1.8126,-1.8068,-1.8177,-1.8176,-1.8175,0,-1.8111,-1.8114,-1.8081,-1.8101,-1.8098,-1.8084,-1.8088,-1.8082,-1.8093,-1.8105,-1.8107,-1.8133,-1.8118,-1.8154,-1.8134,-1.8158,-1.8156,-1.8164,-1.8162,-1.8163,-1.8202,-1.8145,-1.805,-1.8041,-1.8163,-1.8164,-1.8165,0,-1.8036,-1.8031,-1.8011,-1.8014,-1.8037,-1.8027,-1.8035,-1.8048,-1.8047,-1.805,-1.805,-1.8051,-1.8052,-1.8052,-1.8077,-1.8101,-1.8055,-1.8092,-1.8064,-1.8064,-1.8053,-1.8053,-1.7957,-1.8051,-1.8051,-1.8051,-1.8051,0,-1.796,-1.7938,-1.7978,-1.7966,-1.7943,-1.7975,-1.7952,-1.7965,-1.7976,-1.7967,-1.8001,-1.7992,-1.8026,-1.8021,-1.8041,-1.8022,-1.8022,-1.8031,-1.8037,-1.8028,-1.8027,-1.8028,-1.8033,-1.8049,-1.8049,-1.805,-1.805,0,-1.7872,-1.7898,-1.7879,-1.7903,-1.7908,-1.789,-1.791,-1.79,-1.7918,-1.7906,-1.7905,-1.7933,-1.7928,-1.7954,-1.7953,-1.7967,-1.7939,-1.7951,-1.7935,-1.7939,-1.7911,-1.7913,-1.7812,-1.78,-1.7901,-1.79,-1.7899,0,-1.7822,-1.7807,-1.7829,-1.7826,-1.7834,-1.7828,-1.7828,-1.786,-1.7858,-1.787,-1.7858,-1.7857,-1.7858,-1.7849,-1.7868,-1.7869,-1.7882,-1.7846,-1.7882,-1.7874,-1.7882,-1.7883,-1.7882,-1.7838,-1.7837,-1.7836,-1.7835,0,-1.7731,-1.7745,-1.7744,-1.7748,-1.7747,-1.7751,-1.7757,-1.7753,-1.7787,-1.7783,-1.778,-1.7781,-1.7781,-1.778,-1.7785,-1.7794,-1.782,-1.7824,-1.7818,-1.7809,-1.7801,-1.7806,-1.7916,-1.7826,-1.7827,-1.7828,-1.7828,-1.7829,-1.7661,-1.765,-1.7665,-1.7663,-1.7671,-1.7677,-1.7669,-1.7686,-1.7684,-1.7688,-1.7707,-1.77,-1.7712,-1.7722,-1.7728,-1.7724,-1.7741,-1.7731,-1.7729,-1.7727,-1.7722,-1.7802,-1.7725,-1.7725,-1.7725,-1.7725,-1.7726,0,-1.7573,-1.7585,-1.7583,-1.7592,-1.759,-1.7616,-1.7625,-1.7622,-1.7616,-1.7626,-1.7626,-1.7623,-1.7622,-1.7642,-1.7644,-1.7637,-1.7649,-1.7636,-1.7637,-1.7639,-1.7706,-1.7712,-1.7626,-1.7626,-1.7626,-1.7626,-1.7626,-1.7626,-1.7527,-1.751,-1.7526,-1.7514,-1.7526,-1.752,-1.7523,-1.7529,-1.7537,-1.7532,-1.7532,-1.7545,-1.756,-1.7563,-1.7564,-1.757,-1.7569,-1.7552,-1.7562,-1.7625,-1.7634,-1.7643,-1.7649,-1.7552,-1.7551,-1.7496,-1.7495,-1.7495]},{"header":{"parameterUnit":"m.s-1","parameterCategory":1,"la1":30.2991,"la2":30.254,"lo1":-89.0895,"lo2":-89.0444,"dy":0.0017,"dx":0.0017,"nx":28,"ny":28,"refTime":"2024-05-28T03:00:00:Z","depth":0,"parameterNumber":3,"parameterNumberName":"V-component_of_WINDS"},"data":[0,0,0,0,0,0,0,0,0,0,0,0,0,0,0,0,0,0,0,0,0,0,0,0,0,0,0,0,0,0,0,0,0,0,0,0,0,0,0,0,0,0,0,0,0,0,0,0,0,0,0,0,0,0,0,0,0,0,-1.2723,-1.2724,0,-1.2745,-1.2745,-1.2745,-1.2733,-1.2732,-1.2732,-1.2731,-1.2754,-1.2755,-1.2756,0,0,0,0,0,0,0,0,0,0,0,0,0,-1.2674,-1.2675,-1.2723,-1.2724,-1.2724,-1.2745,-1.2745,-1.2745,-1.2733,-1.2732,-1.2732,-1.2731,-1.2753,-1.2755,-1.2756,0,0,0,0,0,0,0,0,0,0,0,0,0,-1.2695,-1.2675,-1.2723,-1.272,-1.272,-1.2744,-1.2745,-1.2745,-1.2733,-1.2732,-1.2731,-1.273,-1.2753,-1.2755,-1.2756,-1.2785,0,0,-1.2762,-1.2762,0,0,0,0,0,0,0,0,-1.2694,-1.2697,-1.2721,-1.2721,-1.2721,-1.2735,-1.2736,-1.2759,-1.2733,-1.2728,-1.2731,-1.273,-1.2748,-1.275,-1.2756,-1.2786,-1.2787,-1.2762,-1.2763,-1.2764,-1.2764,0,0,0,0,0,0,0,-1.2693,-1.2696,-1.2732,-1.2721,-1.2721,-1.2718,-1.272,-1.274,-1.2743,-1.2729,-1.2728,-1.273,-1.2748,-1.2755,-1.2757,-1.2787,-1.2762,-1.2763,-1.2764,-1.2765,-1.2843,-1.2844,0,0,0,0,0,0,-1.2691,-1.2695,-1.2731,-1.2732,-1.2705,-1.272,-1.2722,-1.2731,-1.2743,-1.2744,-1.2731,-1.273,-1.2752,-1.2755,-1.2758,-1.2793,-1.2764,-1.2765,-1.2766,-1.2842,-1.2844,-1.2845,0,0,0,0,0,0,-1.269,-1.2694,-1.273,-1.2713,-1.2718,-1.2722,-1.2732,-1.2732,-1.2739,-1.2745,-1.2745,-1.2737,-1.2752,-1.2755,-1.2779,-1.2794,-1.2766,-1.2768,-1.2841,-1.2843,-1.2844,-1.2864,0,0,0,0,0,0,-1.2689,-1.2694,-1.2705,-1.2714,-1.2719,-1.2751,-1.2733,-1.2733,-1.2742,-1.274,-1.2751,-1.2752,-1.2751,-1.2776,-1.278,-1.2796,-1.2769,-1.284,-1.2842,-1.2844,-1.2862,-1.2866,-1.287,0,0,0,0,0,-1.2687,-1.2709,-1.2705,-1.271,-1.2732,-1.2751,-1.2754,-1.2753,-1.2743,-1.2754,-1.2758,-1.2751,-1.2791,-1.2779,-1.2783,-1.28,-1.2839,-1.2841,-1.2843,-1.2861,-1.2866,-1.287,0,0,0,0,0,0,-1.2702,-1.2711,-1.2706,-1.2732,-1.2741,-1.2749,-1.2763,-1.2758,-1.2771,-1.2769,-1.2767,-1.277,-1.2794,-1.2799,-1.2785,-1.2829,-1.2813,-1.2817,-1.2825,-1.283,-1.2833,-1.2833,-1.277,0,0,0,0,0,-1.2709,-1.2723,-1.273,-1.2752,-1.2757,-1.2759,-1.2768,-1.2766,-1.2776,-1.2779,-1.2785,-1.2795,-1.281,-1.282,-1.2833,-1.2862,-1.2865,-1.2876,-1.288,-1.2883,-1.2886,-1.2903,-1.2909,-1.2852,-1.2852,-1.2852,0,0,-1.2722,-1.2728,-1.2738,-1.2756,-1.2762,-1.2779,-1.2763,-1.278,-1.2792,-1.2782,-1.2805,-1.2809,-1.282,-1.2847,-1.2859,-1.2852,-1.2902,-1.2886,-1.2888,-1.289,-1.2906,-1.2912,-1.2916,-1.2854,-1.2854,-1.2853,0,0,-1.2755,-1.2761,-1.2781,-1.2788,-1.2799,-1.28,-1.2805,-1.2814,-1.2817,-1.2839,-1.2833,-1.2847,-1.2872,-1.2881,-1.2888,-1.2925,-1.292,-1.2929,-1.295,-1.2967,-1.2971,-1.2975,-1.299,-1.2995,-1.2933,-1.2933,-1.2933,0,-1.2771,-1.2795,-1.2792,-1.281,-1.2819,-1.281,-1.2831,-1.2838,-1.2853,-1.2859,-1.285,-1.2883,-1.2889,-1.2918,-1.2927,-1.2933,-1.294,-1.2929,-1.2971,-1.2975,-1.2978,-1.2992,-1.2998,-1.2934,-1.2934,-1.2934,-1.2934,0,-1.2814,-1.2831,-1.2845,-1.286,-1.287,-1.2889,-1.289,-1.2901,-1.2898,-1.2901,-1.2925,-1.2932,-1.2948,-1.2955,-1.2952,-1.2984,-1.2979,-1.297,-1.2956,-1.2985,-1.2998,-1.3004,-1.2936,-1.2935,-1.2935,-1.2935,0,0,-1.2858,-1.2871,-1.2877,-1.2884,-1.2895,-1.2908,-1.2928,-1.2943,-1.2953,-1.2963,-1.298,-1.3002,-1.2994,-1.3003,-1.3001,-1.3015,-1.3046,-1.3005,-1.3005,-1.3014,-1.3084,-1.3092,-1.3098,-1.3042,-1.3043,-1.3044,-1.3084,0,-1.2894,-1.2928,-1.2926,-1.2958,-1.2974,-1.2966,-1.2983,-1.2992,-1.2995,-1.3009,-1.3012,-1.3028,-1.3016,-1.3021,-1.3035,-1.304,-1.3061,-1.3036,-1.3059,-1.306,-1.3059,-1.3105,-1.3113,-1.3151,-1.3089,-1.3089,-1.309,0,-1.294,-1.2952,-1.2986,-1.2996,-1.3002,-1.3017,-1.3032,-1.3045,-1.3056,-1.3057,-1.3067,-1.3063,-1.3083,-1.3066,-1.3095,-1.3079,-1.3088,-1.3092,-1.3093,-1.3097,-1.3078,-1.3112,-1.3162,-1.3169,-1.3098,-1.3097,-1.3097,0,-1.2971,-1.2996,-1.302,-1.3026,-1.3037,-1.3048,-1.3054,-1.3063,-1.3073,-1.3085,-1.3092,-1.3107,-1.3115,-1.3127,-1.3128,-1.3115,-1.3158,-1.314,-1.316,-1.3161,-1.3171,-1.3171,-1.3226,-1.3174,-1.3174,-1.3174,-1.3173,0,-1.3012,-1.3033,-1.3034,-1.3049,-1.3073,-1.3071,-1.3095,-1.3099,-1.3107,-1.3124,-1.3117,-1.3132,-1.3131,-1.3147,-1.3147,-1.3172,-1.3175,-1.3178,-1.3178,-1.318,-1.318,-1.3187,-1.3185,-1.3175,-1.3175,-1.3174,-1.3174,0,-1.3052,-1.3053,-1.3079,-1.3087,-1.309,-1.3108,-1.3116,-1.313,-1.3132,-1.3153,-1.3157,-1.3161,-1.3179,-1.318,-1.3201,-1.3201,-1.3232,-1.3228,-1.3229,-1.3229,-1.325,-1.3249,-1.3313,-1.3322,-1.3262,-1.3263,-1.3263,0,-1.3079,-1.3095,-1.3106,-1.3116,-1.3122,-1.3139,-1.3149,-1.3147,-1.3158,-1.3171,-1.3185,-1.3202,-1.3216,-1.3246,-1.3251,-1.3267,-1.3265,-1.3286,-1.3267,-1.3269,-1.3268,-1.3267,-1.327,-1.3291,-1.3291,-1.3292,-1.3292,0,-1.3127,-1.3127,-1.3142,-1.3157,-1.3169,-1.3181,-1.3192,-1.3201,-1.3201,-1.3213,-1.3232,-1.3243,-1.3264,-1.3282,-1.3298,-1.3304,-1.3299,-1.3298,-1.3304,-1.3307,-1.3307,-1.3309,-1.3241,-1.3297,-1.3296,-1.3296,-1.3296,-1.3296,-1.3163,-1.3178,-1.3188,-1.3205,-1.3213,-1.3224,-1.3238,-1.3242,-1.3257,-1.3275,-1.3273,-1.3294,-1.3305,-1.3325,-1.3333,-1.335,-1.3342,-1.335,-1.3353,-1.3355,-1.3359,-1.3302,-1.3352,-1.3352,-1.3352,-1.3352,-1.3352,0,-1.3213,-1.3219,-1.3234,-1.325,-1.3264,-1.3257,-1.3269,-1.3281,-1.3299,-1.3309,-1.3324,-1.3345,-1.3363,-1.3369,-1.3386,-1.3399,-1.3397,-1.3404,-1.3404,-1.3406,-1.3363,-1.3357,-1.3405,-1.3405,-1.3405,-1.3405,-1.3405,-1.3405,-1.324,-1.3266,-1.3267,-1.3297,-1.3302,-1.3323,-1.3331,-1.3341,-1.3349,-1.3374,-1.3389,-1.3392,-1.3401,-1.3419,-1.3435,-1.3437,-1.3444,-1.3453,-1.3453,-1.3414,-1.3408,-1.3403,-1.3398,-1.3454,-1.3454,-1.3495,-1.3495,-1.3496]}]]